TimeEST,TemperatureF,Dew PointF,Humidity,Sea Level PressureIn,VisibilityMPH,Wind Direction,Wind SpeedMPH,Gust SpeedMPH,PrecipitationIn,Events,Conditions,WindDirDegrees,DateUTC
12:15 AM,30.2,30.2,100,30.49,10.0,Calm,Calm,-,N/A,,Clear,0,2013-11-29 05:15:00
12:35 AM,30.2,28.4,93,30.49,7.0,Calm,Calm,-,N/A,,Clear,0,2013-11-29 05:35:00
12:55 AM,30.2,30.2,100,30.48,10.0,Calm,Calm,-,N/A,,Clear,0,2013-11-29 05:55:00
1:15 AM,30.2,28.4,93,30.48,2.5,Calm,Calm,-,N/A,,Clear,0,2013-11-29 06:15:00
1:35 AM,30.2,30.2,100,30.48,4.0,Calm,Calm,-,N/A,,Clear,0,2013-11-29 06:35:00
1:55 AM,28.4,28.4,100,30.48,7.0,Calm,Calm,-,N/A,,Clear,0,2013-11-29 06:55:00
2:15 AM,30.2,28.4,93,30.48,10.0,Calm,Calm,-,N/A,,Clear,0,2013-11-29 07:15:00
2:35 AM,28.4,28.4,100,30.47,10.0,NNE,3.5,-,N/A,,Clear,20,2013-11-29 07:35:00
2:55 AM,30.2,28.4,93,30.48,10.0,Calm,Calm,-,N/A,,Clear,0,2013-11-29 07:55:00
3:15 AM,30.2,28.4,93,30.48,10.0,Calm,Calm,-,N/A,,Clear,0,2013-11-29 08:15:00
3:35 AM,30.2,30.2,100,30.48,10.0,Calm,Calm,-,N/A,,Clear,0,2013-11-29 08:35:00
3:55 AM,28.4,28.4,100,30.48,10.0,Calm,Calm,-,N/A,,Clear,0,2013-11-29 08:55:00
4:15 AM,30.2,28.4,93,30.46,10.0,NNE,3.5,-,N/A,,Clear,20,2013-11-29 09:15:00
4:35 AM,30.2,28.4,93,30.46,10.0,NNE,3.5,-,N/A,,Clear,30,2013-11-29 09:35:00
4:55 AM,30.2,28.4,93,30.47,10.0,Calm,Calm,-,N/A,,Clear,0,2013-11-29 09:55:00
5:15 AM,30.2,28.4,93,30.48,10.0,Calm,Calm,-,N/A,,Clear,0,2013-11-29 10:15:00
5:35 AM,30.2,28.4,93,30.48,10.0,Calm,Calm,-,N/A,,Clear,0,2013-11-29 10:35:00
5:55 AM,30.2,28.4,93,30.48,10.0,Calm,Calm,-,N/A,,Clear,0,2013-11-29 10:55:00
6:15 AM,30.2,28.4,93,30.49,10.0,NE,3.5,-,N/A,,Clear,50,2013-11-29 11:15:00
6:35 AM,30.2,28.4,93,30.50,10.0,NNE,4.6,-,N/A,,Clear,20,2013-11-29 11:35:00
6:55 AM,30.2,28.4,93,30.50,10.0,Calm,Calm,-,N/A,,Clear,0,2013-11-29 11:55:00
7:15 AM,30.2,28.4,93,30.51,10.0,NNE,3.5,-,N/A,,Clear,20,2013-11-29 12:15:00
7:35 AM,30.2,28.4,93,30.52,10.0,Calm,Calm,-,N/A,,Clear,0,2013-11-29 12:35:00
7:55 AM,32.0,30.2,93,30.52,10.0,NNE,3.5,-,N/A,,Clear,30,2013-11-29 12:55:00
8:15 AM,32.0,30.2,93,30.52,10.0,NE,3.5,-,N/A,,Clear,40,2013-11-29 13:15:00
8:35 AM,32.0,32.0,100,30.53,10.0,NE,4.6,-,N/A,,Clear,40,2013-11-29 13:35:00
8:55 AM,33.8,32.0,93,30.53,10.0,NNE,5.8,-,N/A,,Clear,30,2013-11-29 13:55:00
9:15 AM,37.4,32.0,81,30.54,10.0,NE,5.8,-,N/A,,Clear,40,2013-11-29 14:15:00
9:35 AM,39.2,32.0,75,30.55,10.0,NNE,3.5,-,N/A,,Clear,20,2013-11-29 14:35:00
9:55 AM,42.8,32.0,66,30.55,10.0,NNE,5.8,-,N/A,,Clear,30,2013-11-29 14:55:00
10:15 AM,44.6,32.0,61,30.55,10.0,NNE,5.8,-,N/A,,Clear,30,2013-11-29 15:15:00
10:35 AM,46.4,30.2,53,30.55,10.0,ENE,5.8,-,N/A,,Clear,60,2013-11-29 15:35:00
10:55 AM,48.2,30.2,50,30.55,10.0,NNE,5.8,-,N/A,,Clear,30,2013-11-29 15:55:00
11:15 AM,48.2,28.4,46,30.54,10.0,NE,6.9,-,N/A,,Clear,40,2013-11-29 16:15:00
11:35 AM,50.0,28.4,43,30.53,10.0,East,5.8,-,N/A,,Clear,80,2013-11-29 16:35:00
11:55 AM,51.8,28.4,41,30.52,10.0,East,6.9,-,N/A,,Clear,80,2013-11-29 16:55:00
12:15 PM,51.8,28.4,41,30.51,10.0,East,6.9,-,N/A,,Clear,80,2013-11-29 17:15:00
12:35 PM,51.8,28.4,41,30.50,10.0,ENE,6.9,-,N/A,,Clear,60,2013-11-29 17:35:00
12:55 PM,53.6,28.4,38,30.49,10.0,ENE,6.9,-,N/A,,Clear,60,2013-11-29 17:55:00
1:15 PM,55.4,28.4,36,30.48,10.0,East,5.8,-,N/A,,Clear,80,2013-11-29 18:15:00
1:35 PM,53.6,26.6,35,30.48,10.0,NNE,4.6,-,N/A,,Clear,20,2013-11-29 18:35:00
1:55 PM,55.4,28.4,36,30.47,10.0,Calm,Calm,-,N/A,,Clear,0,2013-11-29 18:55:00
2:15 PM,55.4,28.4,36,30.45,10.0,East,5.8,-,N/A,,Clear,80,2013-11-29 19:15:00
2:35 PM,57.2,28.4,33,30.45,10.0,NNE,8.1,-,N/A,,Clear,30,2013-11-29 19:35:00
2:55 PM,57.2,28.4,33,30.44,10.0,ENE,6.9,-,N/A,,Clear,70,2013-11-29 19:55:00
3:15 PM,57.2,28.4,33,30.44,10.0,NNE,6.9,-,N/A,,Clear,20,2013-11-29 20:15:00
3:35 PM,57.2,28.4,33,30.44,10.0,ENE,6.9,-,N/A,,Clear,70,2013-11-29 20:35:00
3:55 PM,57.2,26.6,31,30.45,10.0,NE,6.9,-,N/A,,Clear,40,2013-11-29 20:55:00
4:15 PM,55.4,28.4,36,30.45,10.0,NNE,5.8,-,N/A,,Clear,30,2013-11-29 21:15:00
4:35 PM,55.4,28.4,36,30.45,10.0,NE,4.6,-,N/A,,Clear,40,2013-11-29 21:35:00
4:55 PM,55.4,30.2,38,30.46,10.0,NNE,3.5,-,N/A,,Clear,30,2013-11-29 21:55:00
5:15 PM,51.8,28.4,41,30.46,10.0,NNE,3.5,-,N/A,,Clear,20,2013-11-29 22:15:00
5:35 PM,50.0,30.2,47,30.46,10.0,Calm,Calm,-,N/A,,Clear,0,2013-11-29 22:35:00
5:55 PM,46.4,33.8,62,30.46,10.0,Calm,Calm,-,N/A,,Clear,0,2013-11-29 22:55:00
6:15 PM,46.4,32.0,57,30.46,10.0,Calm,Calm,-,N/A,,Clear,0,2013-11-29 23:15:00
6:35 PM,42.8,32.0,66,30.46,10.0,Calm,Calm,-,N/A,,Clear,0,2013-11-29 23:35:00
6:55 PM,41.0,32.0,70,30.47,10.0,Calm,Calm,-,N/A,,Clear,0,2013-11-29 23:55:00
7:15 PM,41.0,32.0,70,30.47,10.0,Calm,Calm,-,N/A,,Clear,0,2013-11-30 00:15:00
7:35 PM,39.2,32.0,75,30.48,10.0,Calm,Calm,-,N/A,,Clear,0,2013-11-30 00:35:00
7:55 PM,37.4,32.0,81,30.48,10.0,Calm,Calm,-,N/A,,Clear,0,2013-11-30 00:55:00
8:15 PM,37.4,32.0,81,30.48,10.0,Calm,Calm,-,N/A,,Clear,0,2013-11-30 01:15:00
8:35 PM,37.4,32.0,81,30.48,10.0,Calm,Calm,-,N/A,,Clear,0,2013-11-30 01:35:00
8:55 PM,37.4,32.0,81,30.49,10.0,Calm,Calm,-,N/A,,Clear,0,2013-11-30 01:55:00
9:15 PM,37.4,32.0,81,30.49,10.0,Calm,Calm,-,N/A,,Clear,0,2013-11-30 02:15:00
9:35 PM,33.8,32.0,93,30.50,10.0,Calm,Calm,-,N/A,,Clear,0,2013-11-30 02:35:00
9:55 PM,33.8,32.0,93,30.50,10.0,NE,3.5,-,N/A,,Clear,50,2013-11-30 02:55:00
10:15 PM,35.6,32.0,87,30.50,10.0,ENE,3.5,-,N/A,,Clear,70,2013-11-30 03:15:00
10:35 PM,37.4,30.2,75,30.50,10.0,East,4.6,-,N/A,,Clear,80,2013-11-30 03:35:00
10:55 PM,41.0,30.2,65,30.49,10.0,East,4.6,-,N/A,,Clear,80,2013-11-30 03:55:00
11:15 PM,42.8,30.2,61,30.48,10.0,East,5.8,-,N/A,,Clear,90,2013-11-30 04:15:00
11:35 PM,42.8,30.2,61,30.48,10.0,East,4.6,-,N/A,,Clear,80,2013-11-30 04:35:00
11:55 PM,41.0,30.2,65,30.48,10.0,East,4.6,-,N/A,,Clear,80,2013-11-30 04:55:00